Tracking 33873 objects as of 21-Apr-2026
HD Live streaming from Space Station
objects crossing your sky now

SL-8 DEB

Track SL-8 DEB now!
10-day predictions


NORAD ID: 21943
Int'l Code: 1991-009CE
Perigee: 1,493.7 km
Apogee: 1,712.1 km
Inclination: 74.0 °
Period: 118.1 minutes
Semi major axis: 7973 km
RCS: 0.0463 m2 (small)
Launch date: February 12, 1991
Source: Commonwealth of Independent States (former USSR) (CIS)
Launch site: PLESETSK MISSILE AND SPACE COMPLEX (PKMTR)

Note: This is SATELLITE DEBRIS
Your satellite tracking list
Your tracking list is empty




NASA's NSSDC Master Catalog

Two Line Element Set (TLE):
1 21943U 91009CE  26109.24085822 -.00000019  00000-0 -43898-4 0  9995
2 21943  73.9548 202.2143 0136954 155.5056 235.0922 12.19265378562837
Source of the keplerian elements: AFSPC